ROMMA est une association bénévole à but non lucratif. Votre soutien est indispensable : ADHERER à ROMMA ou FAIRE un DON

Voiron - (38, Isère)

Voironnais (300 m)   Longitude: 05° 35' E   Latitude: 45° 23' N Station partenaire n°109
 

Détail journalier du     <<     >>

Température Precipitation Humidité Pression Vent Dir Rafale Dir. rafale Ensol.
Heure (°C) (mm) (%) (hPa) (km/h) (km/h) (min)
01:00 10.308610276SSO32S0
02:00 11.0083102711S31S0
03:00 10.908310263NO13ESE0
04:00 10.608510253ONO10O0
05:00 10.608510252S13S0
06:00 10.808510252S6NNO0
07:00 10.808610252NE6NNO0
08:00 10.808610252SE11SSE0
09:00 11.008610262NO6ONO0
10:00 11.508510252ESE6ONO0
11:00 11.708410252ESE5ESE0
12:00 12.508310252SSO5SSE0
13:00 14.507310255S18S30
14:00 15.406910243SE15SE0
15:00 16.706710242ESE8SSE0
16:00 17.006210247S18SSE60
17:00 17.405910238SSO21SSO60
18:00 13.40.681102411NNE39NNO0
19:00 12.908410254E16NE0
20:00 11.808810252NNO6NNO0
21:00 10.608710262NNO10NNE0
22:00 12.8057102713N31N0
23:00 12.205810286N26NE0
minuit 11.406310285N16NE0

Graphique du 10-03-2019

 

Serveur OMMA